[[{"header":{"parameterUnit":"m.s-1","parameterCategory":1,"la1":30.2992,"la2":30.254,"lo1":-89.0895,"lo2":-89.0443,"dy":0.0025,"dx":0.0025,"nx":19,"ny":19,"refTime":"2026-03-16T09:00:00:Z","depth":0,"parameterNumber":2,"parameterNumberName":"U-component_of_WINDS"},"data":[0,0,0,-1.9566,-1.9568,-1.97,-1.97,-1.9865,-1.9867,0,0,0,0,0,0,0,0,0,0,0,-1.9525,-1.9526,-1.9565,-1.9569,-1.97,-1.9701,-1.9865,-1.9867,0,0,0,0,0,0,0,0,0,0,0,-1.9525,-1.9526,-1.9528,-1.9569,-1.97,-1.9701,-1.9864,-1.9766,0,0,0,0,0,0,0,0,0,0,-1.9639,-1.9601,-1.9526,-1.9528,-1.957,-1.97,-1.9701,-1.9762,-1.9773,-1.9804,0,-1.9833,0,-1.9852,-1.9877,-1.9878,0,0,0,-1.957,-1.9592,-1.9629,-1.9528,-1.9571,-1.9699,-1.9641,-1.9768,-1.978,-1.9819,-1.9835,-1.9841,-1.9855,-1.9878,-1.9879,-2.006,-2.0061,0,0,-1.9562,-1.9548,-1.962,-1.9637,-1.9617,-1.9637,-1.9645,-1.9775,-1.9792,-1.9836,-1.9845,-1.9858,-1.988,-1.9881,-2.0059,-2.006,0,0,0,-1.9541,-1.9543,-1.9577,-1.963,-1.9654,-1.9641,-1.965,-1.9786,-1.9798,-1.9847,-1.986,-1.988,-1.9882,-2.0058,-2.006,-2.0085,0,0,0,-1.9537,-1.9531,-1.9573,-1.9566,-1.9651,-1.9722,-1.9658,-1.9789,-1.9805,-1.9859,-1.9881,-1.9884,-2.0057,-2.0059,-2.0082,-2.0099,0,0,0,-1.9517,-1.9528,-1.9547,-1.9565,-1.9621,-1.972,-1.974,-1.9793,-1.9812,-1.9878,-1.9884,-2.0057,-2.0059,-2.008,-2.0095,-2.0141,0,0,0,-1.9492,-1.9568,-1.9547,-1.9636,-1.962,-1.9735,-1.9739,-1.9826,-1.9885,-1.9881,-2.0058,-2.0059,-2.0079,-2.0093,-2.0139,-2.0177,-2.0192,0,0,-1.958,-1.9578,-1.9631,-1.9617,-1.9732,-1.9716,-1.9835,-1.9903,-1.9922,-2.0013,-2.0017,-2.0083,-2.0095,-2.0141,-2.0282,-2.0293,0,0,0,-1.9654,-1.9692,-1.9726,-1.9782,-1.9835,-1.9882,-1.9934,-1.9959,-2.0036,-1.9966,-2.0113,-2.0121,-2.0148,-2.0167,-2.0177,-2.0201,-2.0068,-2.0068,-2.0067,-1.9757,-1.9777,-1.9867,-1.9903,-1.9957,-2.0009,-2.0054,-2.0096,-2.0102,-2.0136,-2.0163,-2.0246,-2.0268,-2.0275,-2.03,-2.0186,-2.0186,-2.0186,-2.0186,-1.9885,-1.9942,-1.9947,-2.0035,-2.0056,-2.013,-2.0183,-2.0184,-2.0255,-2.0228,-2.0253,-2.022,-2.0287,-2.031,-2.0188,-2.0188,-2.0187,-2.0187,-2.0187,-1.9954,-1.9985,-2.0014,-2.0096,-2.0157,-2.0191,-2.026,-2.0277,-2.0293,-2.0318,-2.0347,-2.0347,-2.0348,-2.0331,-2.0331,-2.0332,-2.0332,-2.0332,-2.0332,-2.0014,-2.0046,-2.0101,-2.0164,-2.0202,-2.0253,-2.0306,-2.0343,-2.0389,-2.0395,-2.0396,-2.0397,-2.0291,-2.0263,-2.0337,-2.0336,-2.0335,-2.0335,-2.0335,-2.0135,-2.011,-2.0196,-2.0234,-2.0308,-2.0367,-2.0388,-2.0462,-2.0495,-2.0528,-2.0524,-2.0443,-2.0443,-2.0435,-2.0412,-2.052,-2.052,-2.052,-2.052,-2.0192,-2.0194,-2.0285,-2.0344,-2.0403,-2.043,-2.0526,-2.0567,-2.0606,-2.0627,-2.0614,-2.0586,-2.0577,-2.0582,-2.0571,-2.0549,-2.069,-2.069,-2.069,-2.0268,-2.0276,-2.0354,-2.0391,-2.045,-2.0501,-2.0591,-2.0658,-2.0696,-2.0698,-2.0644,-2.0637,-2.0591,-2.0576,-2.0575,-2.0558,-2.0519,0,0]},{"header":{"parameterUnit":"m.s-1","parameterCategory":1,"la1":30.2992,"la2":30.254,"lo1":-89.0895,"lo2":-89.0443,"dy":0.0025,"dx":0.0025,"nx":19,"ny":19,"refTime":"2026-03-16T09:00:00:Z","depth":0,"parameterNumber":3,"parameterNumberName":"V-component_of_WINDS"},"data":[0,0,0,-1.3334,-1.3334,-1.3336,-1.3336,-1.3332,-1.3332,0,0,0,0,0,0,0,0,0,0,0,-1.333,-1.333,-1.3334,-1.3334,-1.3336,-1.3336,-1.3332,-1.3332,0,0,0,0,0,0,0,0,0,0,0,-1.333,-1.333,-1.333,-1.3334,-1.3336,-1.3336,-1.3332,-1.3333,0,0,0,0,0,0,0,0,0,0,-1.3332,-1.3325,-1.333,-1.333,-1.3334,-1.3336,-1.3336,-1.3333,-1.3333,-1.3328,0,-1.3324,0,-1.3328,-1.3331,-1.3331,0,0,0,-1.3337,-1.3325,-1.3329,-1.333,-1.3334,-1.3336,-1.3336,-1.3333,-1.3333,-1.3328,-1.3324,-1.3324,-1.3327,-1.3331,-1.3331,-1.3296,-1.3295,0,0,-1.3337,-1.3328,-1.3329,-1.3328,-1.3328,-1.3336,-1.3336,-1.3333,-1.3327,-1.3324,-1.3324,-1.3327,-1.3331,-1.3331,-1.3296,-1.3296,0,0,0,-1.3335,-1.3328,-1.3332,-1.3328,-1.3329,-1.3336,-1.3336,-1.3328,-1.333,-1.3324,-1.3327,-1.3331,-1.3331,-1.3296,-1.3296,-1.3272,0,0,0,-1.3335,-1.3327,-1.3332,-1.3327,-1.3329,-1.3328,-1.3331,-1.333,-1.333,-1.3327,-1.3331,-1.3331,-1.3297,-1.3296,-1.3273,-1.3261,0,0,0,-1.3331,-1.3327,-1.3326,-1.3326,-1.3327,-1.3329,-1.3331,-1.333,-1.3332,-1.3331,-1.3331,-1.3297,-1.3296,-1.3274,-1.3264,-1.3248,0,0,0,-1.3325,-1.3305,-1.3325,-1.3305,-1.3327,-1.3314,-1.3331,-1.3322,-1.3319,-1.3331,-1.3297,-1.3296,-1.3275,-1.3265,-1.325,-1.3233,-1.3226,0,0,-1.3295,-1.3301,-1.329,-1.3308,-1.3289,-1.3315,-1.3293,-1.3298,-1.3306,-1.3299,-1.3298,-1.3273,-1.3264,-1.3249,-1.319,-1.3184,0,0,0,-1.3277,-1.3269,-1.3266,-1.3262,-1.3265,-1.3267,-1.3276,-1.3278,-1.3272,-1.3301,-1.3264,-1.3259,-1.3251,-1.3243,-1.3238,-1.323,-1.3292,-1.3293,-1.3293,-1.3222,-1.3233,-1.3214,-1.3225,-1.3221,-1.3231,-1.3228,-1.3232,-1.3245,-1.3236,-1.3234,-1.3197,-1.3188,-1.3184,-1.3176,-1.3227,-1.3227,-1.3227,-1.3227,-1.3178,-1.3167,-1.3184,-1.3172,-1.3183,-1.3173,-1.3181,-1.3191,-1.3182,-1.32,-1.3193,-1.321,-1.3177,-1.3171,-1.3225,-1.3226,-1.3226,-1.3226,-1.3226,-1.3141,-1.3138,-1.314,-1.3135,-1.313,-1.3142,-1.3133,-1.3145,-1.3155,-1.3149,-1.3146,-1.3146,-1.3147,-1.3147,-1.3147,-1.3147,-1.3147,-1.3146,-1.3146,-1.3102,-1.3105,-1.3096,-1.3098,-1.3096,-1.3096,-1.3105,-1.3104,-1.3105,-1.3114,-1.3114,-1.3126,-1.3173,-1.3183,-1.3144,-1.3145,-1.3145,-1.3145,-1.3145,-1.305,-1.3063,-1.3049,-1.3047,-1.3049,-1.3042,-1.3058,-1.3054,-1.3055,-1.3049,-1.3064,-1.3097,-1.3104,-1.3108,-1.3116,-1.3063,-1.3063,-1.3063,-1.3063,-1.3017,-1.3022,-1.301,-1.3006,-1.3004,-1.3016,-1.2998,-1.3005,-1.3015,-1.3016,-1.3025,-1.3038,-1.3042,-1.3047,-1.3052,-1.306,-1.2993,-1.2993,-1.2993,-1.2985,-1.299,-1.2973,-1.2982,-1.2985,-1.2986,-1.297,-1.2964,-1.2978,-1.2991,-1.3016,-1.3019,-1.304,-1.3046,-1.3058,-1.3066,-1.3081,0,0]}]]